Houma, LA

4:00 AM CDT on April 25, 2018 (GMT -0500)
Houma-terrebonne

Weather History for KHUM - November, 2013

Change the Weather History Date:

Sunday, November 10, 2013

  Actual Average Record
Temperature  
Mean Temperature 64 °F -  
Max Temperature 77 °F 73 °F 86 °F (1986)
Min Temperature 52 °F 51 °F 26 °F (1991)
Growing Degree Days 14 (Base 50)    
Moisture  
Dew Point 55 °F    
Average Humidity 82    
Maximum Humidity 91    
Minimum Humidity 44    
Precipitation  
Precipitation 0.00 in - - ()
Sea Level Pressure  
Sea Level Pressure 30.20 in    
Wind  
Wind Speed 4 mph (NNE)    
Max Wind Speed 14 mph    
Max Gust Speed -    
Visibility 8 miles    
Events      
Averages and records for this station are not official NWS values.
T = Trace of Precipitation, MM = Missing Value Source: NWS Daily Summary

Daily Weather History Graph

Daily Weather History Graph

Search for Another Location

Airport or City:

Astronomy

Nov. 10, 2013 Rise Set
Actual Time 6:23 AM CST 5:09 PM CST
Civil Twilight 5:58 AM CST 5:34 PM CST
Nautical Twilight 5:29 AM CST 6:03 PM CST
Astronomical Twilight 5:01 AM CST 6:31 PM CST
Moon 12:46 PM CST (11/10) No Moon Set
Length of Visible Light 11h 36m
Length of Day
10h 46m
First Quarter, 56% of the Moon is Illuminated
Nov 10
First Quarter
Nov 17
Full
Nov 25
Last Quarter
Dec 2
New
Dec 9
First Quarter

Hourly Weather History & Observations

Time (CST) Temp. Dew Point Humidity Pressure Visibility Wind Dir Wind Speed Gust Speed Precip Events Conditions
12:15 AM 59.2 °F 56.5 °F 91% 30.17 in 7.0 mi Calm Calm - N/A   Mostly Cloudy
12:35 AM 60.3 °F 57.7 °F 91% 30.17 in 7.0 mi North 3.5 mph - N/A   Overcast
12:55 AM 60.1 °F 57.6 °F 91% 30.17 in 5.0 mi North 4.6 mph - N/A   Mostly Cloudy
1:15 AM 60.4 °F 57.9 °F 91% 30.18 in 5.0 mi North 4.6 mph - N/A   Mostly Cloudy
1:35 AM 60.8 °F 58.3 °F 91% 30.17 in 7.0 mi NNE 6.9 mph - N/A   Overcast
1:55 AM 61.0 °F 58.1 °F 90% 30.17 in 7.0 mi North 5.8 mph - N/A   Mostly Cloudy
2:15 AM 61.2 °F 58.3 °F 90% 30.18 in 5.0 mi North 5.8 mph - N/A   Overcast
2:35 AM 61.7 °F 58.6 °F 90% 30.18 in 7.0 mi NNE 4.6 mph - N/A   Mostly Cloudy
2:55 AM 61.5 °F 58.5 °F 90% 30.18 in 7.0 mi NE 4.6 mph - N/A   Scattered Clouds
3:15 AM 61.7 °F 58.6 °F 90% 30.18 in 7.0 mi NNE 4.6 mph - N/A   Mostly Cloudy
3:35 AM 61.3 °F 58.5 °F 90% 30.18 in 7.0 mi North 4.6 mph - N/A   Overcast
3:55 AM 61.0 °F 57.9 °F 90% 30.18 in 7.0 mi North 5.8 mph - N/A   Mostly Cloudy
4:15 AM 60.8 °F 57.4 °F 88% 30.19 in 7.0 mi North 6.9 mph - N/A   Overcast
4:35 AM 60.4 °F 56.8 °F 88% 30.19 in 10.0 mi NNE 6.9 mph - N/A   Overcast
4:55 AM 60.4 °F 56.3 °F 86% 30.20 in 7.0 mi NNE 5.8 mph - N/A   Overcast
5:50 AM 60.8 °F 55.4 °F 82% 30.22 in 7.0 mi NNE 11.5 mph - N/A   Scattered Clouds
6:50 AM 60.8 °F 55.4 °F 82% 30.22 in 7.0 mi NNE 11.5 mph - N/A   Scattered Clouds
7:50 AM 62.6 °F 55.4 °F 77% 30.25 in 7.0 mi NNE 6.9 mph - N/A   Scattered Clouds
8:50 AM 64.4 °F 55.4 °F 73% 30.26 in 7.0 mi NE 9.2 mph - N/A   Scattered Clouds
9:50 AM 69.8 °F 55.4 °F 60% 30.26 in 7.0 mi NE 9.2 mph - N/A   Scattered Clouds
10:50 AM 75.2 °F 53.6 °F 47% 30.24 in 7.0 mi NE 13.8 mph - N/A   Scattered Clouds
11:50 AM 75.2 °F 53.6 °F 47% 30.21 in 7.0 mi NE 13.8 mph - N/A   Scattered Clouds
12:50 PM 75.2 °F 55.4 °F 50% 30.19 in 7.0 mi East 11.5 mph - N/A   Scattered Clouds
1:50 PM 77.0 °F 53.6 °F 44% 30.17 in 7.0 mi NE 11.5 mph - N/A   Scattered Clouds
2:50 PM 75.2 °F 55.4 °F 50% 30.18 in 7.0 mi NE 6.9 mph - N/A   Scattered Clouds
4:55 PM 68.0 °F 55.4 °F 64% 30.19 in 7.0 mi NE 6.9 mph - N/A   Partly Cloudy
5:55 PM 62.6 °F 55.4 °F 77% 30.20 in 7.0 mi NE 6.9 mph - N/A   Partly Cloudy
6:15 PM 60.8 °F 54.7 °F 80% 30.20 in 10.0 mi ENE 3.5 mph - N/A   Clear
6:35 PM 59.5 °F 54.3 °F 83% 30.20 in 10.0 mi Calm Calm - N/A   Clear
6:50 PM 57.2 °F 53.6 °F 88% 30.21 in 7.0 mi NE 4.6 mph - N/A   Partly Cloudy
6:55 PM 57.4 °F 53.6 °F 87% 30.21 in 10.0 mi Calm Calm - N/A   Clear
7:15 PM 58.1 °F 54.7 °F 88% 30.21 in 10.0 mi Calm Calm - N/A   Clear
7:35 PM 56.3 °F 52.7 °F 88% 30.22 in 10.0 mi Calm Calm - N/A   Clear
7:55 PM 57.2 °F 54.0 °F 89% 30.22 in 7.0 mi Calm Calm - N/A   Clear
8:15 PM 55.4 °F 52.0 °F 88% 30.22 in 10.0 mi Calm Calm - N/A   Clear
8:35 PM 54.9 °F 51.6 °F 89% 30.23 in 7.0 mi Calm Calm - N/A   Clear
8:55 PM 54.7 °F 51.6 °F 89% 30.23 in 7.0 mi Calm Calm - N/A   Clear
9:15 PM 54.0 °F 50.9 °F 89% 30.23 in 10.0 mi Calm Calm - N/A   Clear
9:35 PM 54.0 °F 51.4 °F 91% 30.23 in 5.0 mi North 3.5 mph - N/A   Clear
9:55 PM 55.6 °F 52.7 °F 90% 30.22 in 10.0 mi Calm Calm - N/A   Clear
10:15 PM 53.8 °F 50.9 °F 90% 30.22 in 10.0 mi Calm Calm - N/A   Clear
10:35 PM 53.2 °F 50.4 °F 90% 30.22 in 10.0 mi Calm Calm - N/A   Clear
10:55 PM 52.5 °F 49.6 °F 90% 30.22 in 10.0 mi North 3.5 mph - N/A   Clear
11:15 PM 53.4 °F 50.7 °F 91% 30.21 in 10.0 mi Calm Calm - N/A   Clear
11:35 PM 55.6 °F 53.1 °F 91% 30.21 in 10.0 mi North 4.6 mph - N/A   Clear
11:55 PM 55.2 °F 51.8 °F 88% 30.21 in 10.0 mi Calm Calm - N/A   Clear